TAP1107 LEZL-LPPT

Flight info

Callsign TAP1107
Flight time 0h 48m
Altitude 32000
Route ONUBA DCT NAPES DCT OSLEP DCT MINTA DCT VATZI
Aircraft E190/M-SDE3GILORVW/S

Departure

Time 2026-05-07 19:59
Airport Seville Airport (LEZL)

Arrival

Time 2026-05-07 20:47
Airport Lisbon Humberto Delgado Airport (LPPT)
Time Latitude Longitude Altitude Speed Heading
2026-05-07 19:37 37.42161 -5.89767 93 ft 0 kts 315°
2026-05-07 19:53 37.42183 -5.89794 93 ft 9 kts 315°
2026-05-07 19:53 37.42212 -5.89812 94 ft 3 kts
2026-05-07 19:54 37.42240 -5.89787 94 ft 7 kts 41°
2026-05-07 19:54 37.42258 -5.89715 92 ft 10 kts 117°
2026-05-07 19:54 37.42204 -5.89643 93 ft 12 kts 136°
2026-05-07 19:54 37.42139 -5.89557 95 ft 17 kts 134°
2026-05-07 19:55 37.42059 -5.89452 96 ft 16 kts 133°
2026-05-07 19:55 37.41989 -5.89360 98 ft 10 kts 117°
2026-05-07 19:55 37.41983 -5.89281 98 ft 9 kts 88°
2026-05-07 19:55 37.41984 -5.89201 99 ft 10 kts 90°
2026-05-07 19:56 37.41984 -5.89093 99 ft 15 kts 90°
2026-05-07 19:56 37.41984 -5.88927 100 ft 23 kts 90°
2026-05-07 19:56 37.41986 -5.88716 102 ft 24 kts 89°
2026-05-07 19:56 37.41985 -5.88511 103 ft 23 kts 90°
2026-05-07 19:57 37.41986 -5.88309 104 ft 23 kts 90°
2026-05-07 19:57 37.41987 -5.88109 105 ft 23 kts 90°
2026-05-07 19:57 37.41989 -5.87913 106 ft 22 kts 90°
2026-05-07 19:57 37.41987 -5.87717 107 ft 22 kts 89°
2026-05-07 19:58 37.41979 -5.87526 108 ft 22 kts 107°
2026-05-07 19:58 37.41881 -5.87428 114 ft 18 kts 186°
2026-05-07 19:58 37.41804 -5.87532 114 ft 17 kts 252°
2026-05-07 19:58 37.41799 -5.87705 112 ft 33 kts 270°
2026-05-07 19:59 37.41795 -5.88367 105 ft 116 kts 270°
2026-05-07 19:59 37.41794 -5.89666 321 ft 170 kts 268°
2026-05-07 19:59 37.41802 -5.91325 907 ft 210 kts 266°
2026-05-07 19:59 37.41822 -5.93270 1380 ft 223 kts 275°
2026-05-07 20:00 37.42225 -5.95178 2017 ft 224 kts 286°
2026-05-07 20:00 37.42701 -5.96998 3128 ft 218 kts 283°
2026-05-07 20:00 37.43095 -5.98860 3882 ft 225 kts 279°
2026-05-07 20:00 37.43442 -6.00845 4513 ft 245 kts 278°
2026-05-07 20:01 37.43799 -6.03065 4978 ft 270 kts 276°
2026-05-07 20:01 37.43645 -6.05409 5764 ft 274 kts 246°
2026-05-07 20:01 37.42765 -6.07531 6704 ft 277 kts 246°
2026-05-07 20:01 37.42334 -6.09869 7566 ft 281 kts 259°
2026-05-07 20:02 37.42030 -6.12308 8437 ft 284 kts 257°
2026-05-07 20:02 37.41603 -6.14746 9287 ft 287 kts 254°
2026-05-07 20:02 37.41101 -6.17204 10108 ft 291 kts 252°
2026-05-07 20:02 37.40553 -6.19738 10591 ft 309 kts 252°
2026-05-07 20:03 37.39955 -6.22419 11050 ft 326 kts 252°
2026-05-07 20:03 37.39324 -6.25225 11616 ft 339 kts 252°
2026-05-07 20:03 37.38679 -6.28093 12524 ft 341 kts 252°
2026-05-07 20:03 37.38029 -6.30974 13552 ft 342 kts 252°
2026-05-07 20:04 37.37376 -6.33859 14535 ft 343 kts 252°
2026-05-07 20:04 37.36724 -6.36729 15539 ft 345 kts 252°
2026-05-07 20:04 37.36061 -6.39641 16489 ft 347 kts 252°
2026-05-07 20:04 37.35391 -6.42572 17361 ft 351 kts 252°
2026-05-07 20:05 37.34714 -6.45532 18198 ft 354 kts 252°
2026-05-07 20:05 37.34028 -6.48523 18920 ft 358 kts 252°
2026-05-07 20:05 37.33333 -6.51545 19664 ft 362 kts 252°
2026-05-07 20:05 37.32631 -6.54595 20417 ft 365 kts 252°
2026-05-07 20:06 37.32160 -6.56637 20904 ft 368 kts 252°
2026-05-07 20:06 37.31444 -6.59737 21600 ft 371 kts 252°
2026-05-07 20:06 37.30717 -6.62875 22237 ft 375 kts 252°
2026-05-07 20:06 37.29985 -6.66034 22852 ft 379 kts 252°
2026-05-07 20:07 37.29243 -6.69227 23463 ft 382 kts 252°
2026-05-07 20:07 37.28494 -6.72441 24007 ft 384 kts 252°
2026-05-07 20:07 37.27743 -6.75665 24581 ft 385 kts 252°
2026-05-07 20:07 37.26989 -6.78897 25139 ft 387 kts 252°
2026-05-07 20:08 37.26226 -6.82156 25667 ft 389 kts 252°
2026-05-07 20:08 37.25458 -6.85426 26191 ft 391 kts 252°
2026-05-07 20:08 37.24695 -6.88669 26689 ft 393 kts 252°
2026-05-07 20:08 37.23917 -6.91969 27174 ft 395 kts 252°
2026-05-07 20:09 37.23134 -6.95289 27628 ft 398 kts 252°
2026-05-07 20:09 37.22348 -6.98618 28071 ft 400 kts 252°
2026-05-07 20:09 37.21555 -7.01971 28500 ft 402 kts 252°
2026-05-07 20:10 37.19956 -7.08712 29463 ft 401 kts 252°
2026-05-07 20:10 37.19163 -7.12049 30073 ft 398 kts 251°
2026-05-07 20:10 37.18376 -7.15359 30577 ft 395 kts 251°
2026-05-07 20:10 37.17594 -7.18643 31074 ft 392 kts 251°
2026-05-07 20:11 37.16813 -7.21916 31540 ft 390 kts 251°
2026-05-07 20:11 37.16037 -7.25161 32016 ft 386 kts 251°
2026-05-07 20:11 37.15262 -7.28399 32152 ft 392 kts 251°
2026-05-07 20:12 37.13685 -7.35013 32015 ft 399 kts 254°
2026-05-07 20:12 37.13388 -7.38480 32039 ft 404 kts 267°
2026-05-07 20:12 37.13806 -7.42003 32045 ft 414 kts 281°
2026-05-07 20:13 37.15817 -7.48794 31997 ft 419 kts 286°
2026-05-07 20:13 37.18020 -7.55569 32008 ft 420 kts 286°
2026-05-07 20:14 37.20241 -7.62352 32017 ft 420 kts 286°
2026-05-07 20:14 37.22460 -7.69157 32007 ft 421 kts 286°
2026-05-07 20:15 37.24676 -7.75973 32008 ft 421 kts 286°
2026-05-07 20:15 37.26889 -7.82787 32017 ft 422 kts 286°
2026-05-07 20:16 37.29091 -7.89583 32025 ft 422 kts 286°
2026-05-07 20:16 37.31299 -7.96423 32029 ft 423 kts 286°
2026-05-07 20:17 37.33508 -8.03275 32032 ft 423 kts 285°
2026-05-07 20:17 37.35716 -8.10145 32031 ft 424 kts 285°
2026-05-07 20:18 37.37781 -8.16579 32033 ft 424 kts 285°
2026-05-07 20:18 37.39271 -8.21233 32039 ft 425 kts 285°
2026-05-07 20:19 37.41477 -8.28133 32038 ft 425 kts 285°
2026-05-07 20:19 37.43682 -8.35056 32043 ft 426 kts 285°
2026-05-07 20:20 37.45854 -8.41873 32042 ft 414 kts 285°
2026-05-07 20:20 37.47988 -8.48616 32049 ft 415 kts 285°
2026-05-07 20:21 37.50126 -8.55377 32057 ft 416 kts 285°
2026-05-07 20:21 37.52253 -8.62113 32059 ft 416 kts 285°
2026-05-07 20:22 37.54392 -8.68904 32034 ft 417 kts 285°
2026-05-07 20:22 37.56530 -8.75711 32042 ft 417 kts 284°
2026-05-07 20:23 37.58677 -8.82512 32035 ft 416 kts 288°
2026-05-07 20:23 37.60048 -8.85152 32019 ft 418 kts 307°
2026-05-07 20:23 37.62382 -8.87350 32043 ft 426 kts 327°
2026-05-07 20:24 37.68072 -8.89846 32080 ft 437 kts 336°
2026-05-07 20:24 37.73890 -8.92105 32039 ft 436 kts 336°
2026-05-07 20:25 37.77757 -8.93656 32038 ft 436 kts 335°
2026-05-07 20:25 37.80664 -8.94834 31603 ft 443 kts 335°
2026-05-07 20:25 37.83645 -8.96054 30319 ft 456 kts 336°
2026-05-07 20:25 37.86709 -8.97301 28854 ft 467 kts 337°
2026-05-07 20:26 37.89783 -8.98545 27242 ft 460 kts 338°
2026-05-07 20:26 37.92815 -8.99772 25620 ft 455 kts 338°
2026-05-07 20:26 37.95816 -9.00992 23962 ft 451 kts 338°
2026-05-07 20:26 37.98791 -9.02205 22063 ft 447 kts 338°
2026-05-07 20:27 38.01745 -9.03414 20111 ft 444 kts 338°
2026-05-07 20:27 38.04666 -9.04648 18265 ft 440 kts 337°
2026-05-07 20:27 38.07535 -9.05872 16511 ft 429 kts 338°
2026-05-07 20:27 38.10280 -9.07039 15365 ft 409 kts 339°
2026-05-07 20:28 38.12919 -9.08156 14298 ft 391 kts 340°
2026-05-07 20:28 38.15465 -9.09216 13109 ft 380 kts 343°
2026-05-07 20:28 38.18030 -9.09477 12428 ft 358 kts
2026-05-07 20:28 38.20291 -9.08541 12029 ft 329 kts 33°
2026-05-07 20:29 38.21984 -9.06757 11701 ft 309 kts 48°
2026-05-07 20:29 38.23465 -9.04808 11303 ft 306 kts 49°
2026-05-07 20:29 38.24938 -9.02866 10888 ft 304 kts 49°
2026-05-07 20:29 38.26376 -9.00959 10495 ft 302 kts 49°
2026-05-07 20:30 38.27824 -8.99034 10094 ft 300 kts 49°
2026-05-07 20:30 38.29261 -8.97114 9686 ft 298 kts 49°
2026-05-07 20:30 38.30680 -8.95212 9302 ft 295 kts 49°
2026-05-07 20:30 38.32073 -8.93334 8930 ft 285 kts 49°
2026-05-07 20:31 38.33377 -8.91575 8900 ft 264 kts 49°
2026-05-07 20:31 38.34633 -8.89881 8904 ft 266 kts 49°
2026-05-07 20:31 38.35923 -8.88139 8608 ft 271 kts 49°
2026-05-07 20:31 38.37211 -8.86393 8323 ft 269 kts 49°
2026-05-07 20:32 38.38538 -8.84724 8015 ft 268 kts 36°
2026-05-07 20:32 38.40267 -8.83947 7684 ft 265 kts 359°
2026-05-07 20:32 38.41987 -8.84533 7440 ft 253 kts 322°
2026-05-07 20:32 38.43088 -8.86167 7243 ft 241 kts 290°
2026-05-07 20:33 38.43407 -8.88209 7130 ft 232 kts 262°
2026-05-07 20:33 38.42993 -8.90160 7158 ft 229 kts 239°
2026-05-07 20:33 38.42073 -8.91798 7106 ft 229 kts 229°
2026-05-07 20:33 38.41045 -8.93362 7096 ft 232 kts 228°
2026-05-07 20:34 38.39995 -8.94940 6974 ft 231 kts 228°
2026-05-07 20:34 38.38968 -8.96505 6985 ft 230 kts 229°
2026-05-07 20:34 38.37985 -8.98117 6976 ft 232 kts 239°
2026-05-07 20:34 38.37439 -9.00050 7013 ft 233 kts 253°
2026-05-07 20:35 38.37025 -9.02064 7001 ft 235 kts 251°
2026-05-07 20:35 38.36551 -9.04056 7009 ft 235 kts 250°
2026-05-07 20:35 38.36042 -9.06031 7010 ft 234 kts 249°
2026-05-07 20:35 38.35517 -9.07997 7005 ft 234 kts 249°
2026-05-07 20:36 38.34985 -9.09960 7008 ft 235 kts 249°
2026-05-07 20:36 38.34548 -9.11966 7002 ft 235 kts 253°
2026-05-07 20:36 38.34138 -9.13982 7005 ft 235 kts 255°
2026-05-07 20:36 38.33792 -9.16022 7008 ft 236 kts 256°
2026-05-07 20:37 38.33476 -9.18071 7008 ft 236 kts 257°
2026-05-07 20:37 38.33174 -9.20125 7006 ft 236 kts 257°
2026-05-07 20:37 38.32883 -9.22151 7009 ft 235 kts 257°
2026-05-07 20:37 38.32767 -9.24231 6968 ft 240 kts 274°
2026-05-07 20:38 38.33347 -9.26307 6193 ft 262 kts 303°
2026-05-07 20:38 38.34801 -9.27746 5634 ft 269 kts 339°
2026-05-07 20:38 38.36598 -9.27909 5510 ft 255 kts
2026-05-07 20:38 38.38273 -9.27340 5407 ft 244 kts 12°
2026-05-07 20:39 38.39900 -9.26826 5323 ft 237 kts 13°
2026-05-07 20:39 38.41489 -9.26357 5216 ft 233 kts
2026-05-07 20:39 38.43077 -9.25972 5143 ft 231 kts
2026-05-07 20:39 38.44653 -9.25628 5067 ft 228 kts
2026-05-07 20:40 38.46195 -9.25332 4924 ft 220 kts
2026-05-07 20:40 38.47670 -9.25034 4817 ft 210 kts
2026-05-07 20:40 38.49088 -9.24768 4730 ft 201 kts
2026-05-07 20:40 38.50426 -9.24511 4668 ft 194 kts
2026-05-07 20:41 38.51760 -9.24273 4559 ft 193 kts
2026-05-07 20:41 38.53092 -9.24035 4475 ft 193 kts
2026-05-07 20:41 38.54421 -9.23794 4409 ft 192 kts
2026-05-07 20:41 38.55755 -9.23556 4324 ft 195 kts
2026-05-07 20:42 38.57106 -9.23332 4169 ft 192 kts 359°
2026-05-07 20:42 38.58357 -9.23579 4454 ft 182 kts 341°
2026-05-07 20:42 38.59692 -9.23747 4120 ft 209 kts 11°
2026-05-07 20:42 38.61049 -9.22895 3556 ft 216 kts 30°
2026-05-07 20:43 38.62309 -9.22014 3358 ft 197 kts 19°
2026-05-07 20:43 38.63561 -9.21424 3139 ft 189 kts 18°
2026-05-07 20:43 38.64759 -9.20779 2882 ft 184 kts 21°
2026-05-07 20:43 38.65918 -9.20128 2670 ft 177 kts 19°
2026-05-07 20:44 38.67028 -9.19550 2420 ft 168 kts 19°
2026-05-07 20:44 38.68079 -9.18989 2197 ft 162 kts 20°
2026-05-07 20:44 38.69103 -9.18436 1975 ft 153 kts 20°
2026-05-07 20:44 38.70032 -9.17939 1793 ft 138 kts 19°
2026-05-07 20:45 38.70865 -9.17495 1602 ft 125 kts 20°
2026-05-07 20:45 38.71669 -9.17064 1439 ft 125 kts 19°
2026-05-07 20:45 38.72481 -9.16628 1245 ft 129 kts 20°
2026-05-07 20:45 38.73301 -9.16190 1071 ft 128 kts 20°
2026-05-07 20:46 38.74128 -9.15745 917 ft 130 kts 19°
2026-05-07 20:46 38.74969 -9.15296 723 ft 133 kts 19°
2026-05-07 20:46 38.75827 -9.14834 545 ft 131 kts 19°
2026-05-07 20:46 38.76645 -9.14395 378 ft 128 kts 19°
2026-05-07 20:47 38.77383 -9.13993 365 ft 90 kts 22°
2026-05-07 20:47 38.77814 -9.13762 361 ft 53 kts 23°
2026-05-07 20:47 38.78093 -9.13614 364 ft 32 kts 25°
2026-05-07 20:47 38.78226 -9.13523 366 ft 10 kts 58°
2026-05-07 20:48 38.78191 -9.13461 363 ft 10 kts 162°
2026-05-07 20:48 38.78117 -9.13443 360 ft 10 kts 167°
2026-05-07 20:48 38.78082 -9.13433 360 ft 3 kts 167°
2026-05-07 20:48 38.78044 -9.13422 360 ft 8 kts 167°
2026-05-07 20:49 38.77971 -9.13402 357 ft 12 kts 168°
2026-05-07 20:49 38.77909 -9.13386 349 ft 10 kts 169°
2026-05-07 20:49 38.77846 -9.13370 347 ft 5 kts 168°
2026-05-07 20:49 38.77837 -9.13367 346 ft 1 kts 169°
2026-05-07 20:50 38.77836 -9.13367 346 ft 0 kts 169°
2026-05-07 20:50 38.77835 -9.13367 346 ft 1 kts 169°
2026-05-07 20:50 38.77821 -9.13355 352 ft 3 kts 123°
2026-05-07 20:50 38.77826 -9.13300 338 ft 9 kts 78°
2026-05-07 20:51 38.77830 -9.13277 337 ft 0 kts 77°